ONEWEB-0265 (48983 NORAD) Tracking and Keplerian Element Data

This shows tracking and keplerian element data for the satellite.

Feedback or suggestion? Click here.




ElementValue
Catalog48983
NameONEWEB-0265
Epoch Orbit1463
Epoch Day269.25001157
Epoch Year2021
RAAN206.5128
Inclination87.4032
Eccentricity0.0004849
Argument of Perigee333.1991
Mean Anonmoly169.8214
Mean Motion15.41481399
Decay Rate0.00067078
L11 48983U 21060S 21269.25001157 .00067078 00000-0 15900-2 0 9997
L22 48983 87.4032 206.5128 0004849 333.1991 169.8214 15.41481399 14636

Live tracking and technical data element details for ONEWEB-0265 (NORAD 48983). ONEWEB-0265 can be tracked NOW for your location showing map with azimuth and elevation plus other details from your city location.

Track the satellite on the map from your city or location and see movement details for azimuth, elevation, latitude, longitude, range, height, and movement on the map or in text.







IsCatalogInMostPopularTable: catalog: 48983, numindb: 17
Update: records affected: 1



GetName: 48983 ONEWEB-0265

Hit Count: updated at: Sun, 26 Sep 2021 16:03:26 GMT